EW1895 Weather Reports


time (UTC)temp
C
wind
direction
speed
KPH
gust
KPH
rain 1hr
cm
rain 24hr
cm
rain mn
cm
humidity
%
barometer
mb
20260509114557 11 179 0.0 0.0 0.00 0.00 0.00 88 1012.9
20260509113120 11 214 0.0 1.6 0.00 0.00 0.00 89 1013.1
20260509111604 10 224 0.0 3.2 0.00 0.00 0.00 89 1012.9
20260509110058 10 238 0.0 1.6 0.00 0.00 0.00 89 1013.0
20260509104600 10 166 0.0 1.6 0.00 0.00 0.00 88 1012.9
20260509103059 10 160 0.0 0.0 0.00 0.00 0.00 87 1012.8
20260509101556 10 160 0.0 0.0 0.00 0.00 0.00 86 1012.8
20260509100110 10 160 0.0 0.0 0.00 0.00 0.00 86 1012.8
20260509094555 10 197 0.0 0.0 0.00 0.00 0.00 85 1012.9
20260509093053 10 239 0.0 0.0 0.00 0.00 0.00 83 1012.9
20260509091603 10 240 0.0 0.0 0.00 0.00 0.00 83 1013.0
20260509090052 10 240 0.0 0.0 0.00 0.00 0.00 81 1013.0
20260509084548 10 240 0.0 0.0 0.00 0.00 0.00 80 1013.0
20260509083048 11 240 0.0 0.0 0.00 0.00 0.00 79 1012.7
20260509081556 11 239 0.0 0.0 0.00 0.00 0.00 78 1012.8
20260509080050 11 240 0.0 1.6 0.00 0.00 0.00 78 1012.8
20260509074545 11 213 0.0 1.6 0.00 0.00 0.00 77 1012.8
20260509073048 11 200 0.0 0.0 0.00 0.00 0.00 77 1013.2
20260509071546 11 200 0.0 0.0 0.00 0.00 0.00 75 1013.4
20260509070042 11 200 0.0 0.0 0.00 0.00 0.00 74 1013.5
20260509064541 11 200 0.0 0.0 0.00 0.00 0.00 74 1013.7
20260509063041 11 223 0.0 0.0 0.00 0.00 0.00 73 1014.0
20260509061550 11 223 0.0 0.0 0.00 0.00 0.00 71 1014.0
20260509060036 12 147 0.0 0.0 0.00 0.00 0.00 69 1014.1
20260509054540 12 148 0.0 0.0 0.00 0.00 0.00 69 1014.2
20260509053050 12 150 0.0 0.0 0.00 0.00 0.00 67 1014.0
20260509051531 12 150 0.0 0.0 0.00 0.00 0.00 67 1013.9
20260509050031 12 150 0.0 0.0 0.00 0.00 0.00 66 1013.9
20260509044532 13 150 0.0 0.0 0.00 0.00 0.00 64 1013.7
20260509043026 13 150 0.0 0.0 0.00 0.00 0.00 64 1013.7
20260509041525 13 187 0.0 0.0 0.00 0.00 0.00 63 1013.8
20260509040023 13 186 0.0 0.0 0.00 0.00 0.00 61 1013.8
20260509034521 13 186 0.0 0.0 0.00 0.00 0.00 61 1014.3
20260509033021 13 196 0.0 1.6 0.00 0.00 0.00 60 1014.3
20260509031518 13 194 0.0 0.0 0.00 0.00 0.00 60 1014.3
20260509030017 14 198 0.0 0.0 0.00 0.00 0.00 57 1014.2
20260509024518 14 200 0.0 0.0 0.00 0.00 0.00 56 1014.2
20260509023015 14 191 0.0 1.6 0.00 0.00 0.00 55 1014.2
20260509021513 14 138 0.0 0.0 0.00 0.00 0.00 56 1014.3
20260509020010 14 265 0.0 0.0 0.00 0.00 0.00 56 1014.0
20260509014508 15 265 0.0 0.0 0.00 0.00 0.00 57 1014.0
20260509013005 15 265 0.0 0.0 0.00 0.00 0.00 54 1013.8
20260509011504 15 265 0.0 0.0 0.00 0.00 0.00 56 1013.8
20260509010100 15 266 0.0 3.2 0.00 0.00 0.00 53 1013.6
20260509004557 16 187 0.0 0.0 0.00 0.00 0.00 51 1013.6
20260509003053 17 187 0.0 0.0 0.00 0.00 0.00 47 1013.5
20260509001550 17 187 0.0 0.0 0.00 0.00 0.00 46 1013.5
20260509000046 17 187 0.0 0.0 0.00 0.00 0.00 44 1013.5
20260508234546 18 187 0.0 0.0 0.00 0.00 0.00 41 1013.2
20260508233040 19 178 0.0 0.0 0.00 0.00 0.00 40 1013.1
20260508231552 19 182 0.0 3.2 0.00 0.00 0.00 38 1012.8
20260508230046 20 157 0.0 6.4 0.00 0.00 0.00 39 1012.9
20260508224534 20 348 0.0 1.6 0.00 0.00 0.00 38 1012.8
20260508223039 20 148 0.0 4.8 0.00 0.00 0.00 35 1012.9
20260508221528 21 163 0.0 8.0 0.00 0.00 0.00 36 1013.1
20260508220030 21 186 0.0 6.4 0.00 0.00 0.00 35 1013.2
20260508214527 22 279 1.6 4.8 0.00 0.00 0.00 33 1013.3
20260508213025 23 46 0.0 8.0 0.00 0.00 0.00 31 1013.3
20260508211525 23 328 0.0 9.7 0.00 0.00 0.00 31 1013.3
20260508210025 22 289 0.0 11.3 0.00 0.00 0.00 30 1013.3
20260508204525 23 194 0.0 11.3 0.00 0.00 0.00 30 1013.5
20260508203027 23 299 0.0 6.4 0.00 0.00 0.00 31 1013.5
20260508201525 23 174 0.0 6.4 0.00 0.00 0.00 31 1013.6
20260508200027 23 225 0.0 8.0 0.00 0.00 0.00 31 1013.5
20260508194523 23 180 0.0 6.4 0.00 0.00 0.00 30 1014.0
20260508193031 23 280 1.6 6.4 0.00 0.00 0.00 33 1014.1
20260508191535 23 198 0.0 4.8 0.00 0.00 0.00 32 1014.4
20260508190030 23 208 0.0 4.8 0.00 0.00 0.00 31 1014.6
20260508184524 23 184 0.0 6.4 0.00 0.00 0.00 32 1014.8
20260508183027 23 246 0.0 4.8 0.00 0.00 0.00 32 1015.1
20260508181523 23 246 0.0 4.8 0.00 0.00 0.00 31 1015.2
20260508180019 22 225 0.0 14.5 0.00 0.00 0.00 34 1015.5
20260508174516 22 286 0.0 6.4 0.00 0.00 0.00 31 1015.6
20260508173016 22 130 0.0 6.4 0.00 0.00 0.00 34 1015.7
20260508171514 22 277 0.0 4.8 0.00 0.00 0.00 32 1015.8
20260508170015 22 190 1.6 9.7 0.00 0.00 0.00 33 1016.1
20260508164517 22 161 0.0 8.0 0.00 0.00 0.00 31 1016.3
20260508163009 21 213 0.0 6.4 0.00 0.00 0.00 35 1016.7
20260508161507 21 300 0.0 6.4 0.00 0.00 0.00 35 1016.9
20260508160008 21 255 0.0 4.8 0.00 0.00 0.00 36 1017.0
20260508154606 20 153 0.0 6.4 0.00 0.00 0.00 38 1017.1
20260508153058 19 242 0.0 3.2 0.00 0.00 0.00 38 1017.3
20260508151556 19 219 0.0 4.8 0.00 0.00 0.00 41 1017.4
20260508150052 19 84 0.0 0.0 0.00 0.00 0.00 43 1017.6
20260508144548 18 92 0.0 0.0 0.00 0.00 0.00 43 1017.6
20260508143046 18 88 0.0 0.0 0.00 0.00 0.00 50 1017.7
20260508141540 17 86 0.0 0.0 0.00 0.00 0.00 51 1017.7
20260508140040 16 86 0.0 0.0 0.00 0.00 0.00 56 1017.9
20260508134534 15 85 0.0 0.0 0.00 0.00 0.00 55 1017.9
20260508133028 14 85 0.0 0.0 0.00 0.00 0.00 64 1017.9
20260508131525 13 85 0.0 0.0 0.00 0.00 0.00 80 1017.9
20260508130023 12 85 0.0 0.0 0.00 0.00 0.00 92 1017.9
20260508124521 11 85 0.0 0.0 0.00 0.00 0.00 97 1017.9
20260508123021 11 144 0.0 0.0 0.00 0.00 0.00 97 1017.8
20260508121520 9 142 0.0 1.6 0.00 0.00 0.00 97 1017.7
20260508120030 7 142 0.0 0.0 0.00 0.00 0.00 97 1017.5